Location: *
(17.3280°S, 114.7300°W)
Time: 07:39:53
(UTC+00:00)

Cosmos 1455 - Pass Details

Date: 05 August 2020
Orbit: 498 x 523 km, 82.5° (Epoch: 20 September)

Event Time Altitude Azimuth Distance (km) Brightness Sun altitude
Exits shadow 12:32:44 - 174° (S) 1,951 5.1 -21.7°
Reaches altitude 10° 12:33:16 10° 172° (S) 1,735 4.8 -21.5°
Maximum altitude 12:36:58 50° 96° (E) 654 3.0 -20.7°
Drops below altitude 10° 12:40:40 10° 19° (NNE) 1,730 5.2 -19.8°
Sets 12:42:50 0° 14° (NNE) 2,613 6.1 -19.3°
